User: anonymous   Login
Location: �perlecques
(50.8057°N, 2.1521°E)
Time: 03:25:19
(UTC+00:00)
Language:

SO-50 - Orbit

View from above orbital plane
View from above orbital plane
View from above satellite
View from above satellite

Ground track
Ground track

The orbit data is extracted from the following two-line orbital elements,

1 27607U 02058C   21268.59221502  .00000138  00000-0  40229-4 0  9995
2 27607  64.5568  32.1141 0053098 351.5089   8.5109 14.75792092  9497
Epoch (UTC): 25 September 2021 14:12:47
Eccentricity: 0.0053098
inclination: 64.5568°
perigee height: 605 km
apogee height: 680 km
right ascension of ascending node: 32.1141°
argument of perigee: 351.5089°
revolutions per day: 14.75792092
mean anomaly at epoch: 8.5109°
orbit number at epoch: 949

The dashed part of the orbit path shows where the satellite is in the earth's shadow,  

DLR